Weather in Shelekhov

Russia / Irkutsk Oblast     52°12′36″N   104°05′50″E
temp.,
°C
wind,
m/s
gust,
m/s
humid.,
%
clouds,
%
prec.,
mm/h
press.,
hPa
HPBL,
m
5 december, sun
sun523:00−8ssw1190100 0.0 102310
02:00−10s11945 0.0 102311
05:00−10wsw119538 0.0 102511
08:00−9w219131 0.0 102814
11:00−5w278643 0.0 1031323
14:00−3nw366940 0.0 1031960
17:00−9s11925 0.0 103210
20:00−11sse23955 0.0 103146
6 december, mon
mon623:00−11sse249516 0.0 102965
02:00−11sse129535 0.0 102630
05:00−12s119472 0.0 102517
08:00−13ssw119318 0.0 102413
11:00−7sse01705 0.0 102353
14:00−3e11635 0.0 1020118
17:00−9ne00935 0.0 102210
20:00−11sw119615 0.0 102410
7 december, tue
tue723:00−12s009670 0.0 102510
02:00−13s019677 0.0 102610
05:00−13s119733 0.0 102610
08:00−14sse119737 0.0 102611
11:00−7se138072 0.0 102382
14:000se267337 0.0 1018287
17:00−5sse26895 0.0 101772
20:00−7sse249346 0.0 101664
8 december, wed
wed823:00−10w1196100 0.0 101711
02:00−10wsw1196100 0.0 101916
05:00−9wnw1493100 0.0 1020132
08:00−8w1193100 0.0 102226
11:00−5nw1395100 1.7 1024128
14:00−3nw41194100 2.6 1025689
17:00−5nw51173100 0.5 1030592
20:00−8wnw3889100 0.5 1033445
9 december, thu
thu923:00−12wsw119586 0.0 103519
02:00−15sw119699 0.0 10359
05:00−16s009731 0.0 10359
08:00−17w0098100 0.0 103610
11:00−13nnw2389100 0.0 1037184
14:00−12nw4678100 0.0 1038438
17:00−13wnw3792100 0.0 1041390
20:00−13wnw2592100 0.1 1043317